Llistat d’arribada – 2012

Us incloc el llista d’arribada de l’edició del 7/4/2012

N. ENTRADA DORSAL TEMPS NOM
1 110 9:18:27 JAUME FOLGUERA ROBERT
2 135 9:28:35 XAVI LLAMAS BOZA
3 324 9:50:53 JOSEP MARIA SALICRÚ MUNTANER
4 225 9:58:55 MASSIMO MANENTI
5 368 10:04:03 JOAN CAMPRECIÓS RODRIGUEZ
6 130 10:21:45 PABLO BOADA MAQUEDA
7 39 10:23:07 JUAN DIEGO MARTIN MARIN
8 52 10:23:11 FELIX DOMINGUEZ DOMINGUEZ
9 98 10:23:13 JORDI MUNTALAT CABRATOSA
10 295 10:33:19 DAVID GOMEZ VILLANUEVA
11 388 10:46:40 JOSEP PERA VALL-LLOSERA
12 161 10:46:51 RAÜL ANGULO ROVIRA
13 19 10:55:07 ROGER OLIVET
14 125 11:10:29 JOSE ANTONIO GOMEZ VILLANUEVA
15 259 11:16:27 MARC OLIVA PUJOL
16 35 11:18:11 DAVID MORENO PÉREZ
17 124 11:18:13 FERNANDO LÓPEZ ALCARAZ
18 208 11:26:44 MARC CORNELLÀ MASSÓ
19 166 11:42:13 PAU RODRIGUEZ MAURICI
20 228 11:42:15 CARLES PLANA OLIVET
21 238 11:59:01 IÑAKI PEREZ MEDINA
22 272 12:02:21 FREDERIC SALART FONT
23 210 12:03:35 GERARD FREIXES TARRAGONA
24 219 12:23:03 XAVI NADAL GELADA
25 294 12:26:05 JOAN CAMPOS BOHILS
26 141 12:27:48 JOAN ROCA MANERO
27 38 12:28:16 DAVID MASDEU BLASCO
28 309 12:28:18 DANIEL PALAU BARTRINA
29 322 12:28:30 SIMO COLLS COSTA
30 75 12:28:49 GUILLEM TORRENS MARÍN
31 8 12:30:00 JOSE MARIA GARRIGA CORTINA
32 205 12:32:02 JORDI REQUENA OSETE
33 396 12:32:13 PHILIPPE VERDOODT CARAZO
34 49 12:34:52 CARLES MORETA BURCH
35 190 12:34:54 JOSEP ANTON ARANDA GUZMAN
36 239 12:35:16 ORIOL BLANCHÉ ROVIRA
37 27 12:35:18 AUGUST SUREDA
38 373 12:36:12 MIGUEL MARTÍNEZ LÓPEZ
39 193 12:36:19 FRANCESC ESPARZA PAÑELLA
40 104 12:36:22 JOSE ANTONIO MORENO SALAZAR
41 4 12:36:24 IGNACIO GARCIA DEL ALAMO
42 316 12:36:28 DAVID GONZÁLEZ RESBIER RESBIER
43 140 12:38:03 FLAVI SABALLS MARANYÀ
44 291 12:38:05 ALEX TORRES GONZALEZ GONZALEZ
45 314 12:38:07 LLUIS SALART
46 7 12:38:08 FRANCESC DE LANUZA GIMENO
47 23 12:38:09 ALEX BAÑON SANCHEZ SANCHEZ
48 369 12:55:17 LUISA PERALES MANTECÓN
49 146 12:59:24 LLUÍS RODRIGUEZ GONZALEZ
50 147 12:59:26 ANTONI CORONA VALDIVIESO
51 174 13:01:13 MARCEL CAMPRUBI CLARET
52 169 13:06:06 DANIEL ARAGUZ ARROYO
53 79 13:06:06 RUBEN TORRES MORENO
54 17 13:06:45 MARTA MONTERO
55 16 13:06:56 XAVIER RIPOLL GEREMIAS
56 277 13:08:29 JOAN ALBOS BARBARROJA
57 15 13:08:32 ALBERT GARCIA MERCADÉ
58 73 13:21:44 FRANCESC PELLICER VIADER
59 332 13:22:35 JOSEP ARDERIU VIUDES
60 390 13:22:45 EDUARD COS VILA
61 167 13:25:40 MANEL RUBIA BLÁZQUEZ
62 53 13:27:32 VICTOR SANCHEZ CADENA
63 338 13:27:36 NOEMÍ SUSIN ALCARAZ
64 164 13:27:39 ENRIC SEVÉ GILABERT
65 54 13:27:56 BORJA  GARCIA MUÑIZ
66 276 13:29:24 ALFRED BELTRAN SOLDEVILA
67 212 13:31:12 ANGEL SABALLS BRASAS
68 153 13:31:16 ALBERT VELASCO
69 150 13:34:06 JAUME LLENAS MARTINEZ
70 139 13:34:08 MIQUEL FERRER JACCARD
71 113 13:38:48 ALBERT HERNÀNDEZ PÉREZ
72 40 13:38:54 JOAN PALLEJÀ ELIES
73 56 13:41:19 FRANCISCO JAVIER ALONSO MENA
74 89 13:56:25 ANGEL LOPEZ HANRATH
75 171 13:56:31 OSCAR MARTI CASSE
76 395 13:51:00 ALBERT ROIG NOLLA
77 261 13:50:00 EMMA RIERA TUBERT
78 222 14:04:03 JOSEP MARTÍ FERRER LÓPEZ
79 134 14:04:07 JORDI FIGUEROLA MIR
80 354 14:06:57 NIL DOMENECH MORE
81 182 14:15:48 JORDI MORÉ SOLSONA
82 356 14:15:52 JORDI VISTOS FAJA
83 223 14:16:04 PERE SALVADOR VALLS
84 215 14:18:16 JOAN SEBASTIÀ BACH CODINA
85 64 14:18:41 JOAN VILA FONTARNAU
86 287 14:19:12 MARC SUBIRÀ I LORENZO
87 364 14:29:43 SANTI PÉREZ DE LA HOZ
88 363 14:29:52 JAALID JAADI DIAZ
89 414 14:30:57 WILMER GABRIEL PAIRÒ
90 36 14:34:03 JAUME MUNTANE BERTRANS
91 231 14:34:13 JORDI CABALLERO GASULLA
92 145 14:37:44 NACHO ALBESA
93 323 14:41:51 XAVIER JUANOLA BECERRA
94 293 14:41:57 LLUÍS PLANAGUMÀ BRUM
95 142 14:42:27 JOAN MARCO VALLS
96 123 14:42:30 JORDI PICORNELL MACH
97 178 14:44:26 JOSEP MARIA RIPOLL MASFERRER
98 179 14:44:32 LLUÍS RAFART MARTINEZ
99 93 14:47:44 DANIEL ALMAZAN PRADILLO
100 160 14:48:20 MIQUEL PITARCH TORRAS
101 211 14:50:00 MANEL PEREZ GIMBERNAT
102 118 14:51:14 JOAN PIE PUIGDOMENECH
103 132 14:51:18 POL OLIVET
104 155 14:51:21 MIQUEL PRATS GOL
105 55 14:58:52 ORIOL DIAZ COLL
106 131 14:58:55 JOSEP SALMERON LLOPART
107 385 15:02:12 GABRIEL SANTIAGO RODRIGUEZ
108 304 15:03:31 ANGEL GARCIA MIRANDA
109 71 15:04:31 JOSEP Mª LLONC SABATER
110 126 15:04:33 ENRIC VALLDAURA GIRABENT
111 62 15:05:28 JOAN PERICH CARRERAS
112 186 15:12:00 RAQUEL FONT LLADÓ
113 242 15:12:06 MARTA PLANAS ROCA
114 207 15:12:09 GERARD COLL CULEBRAS
115 229 15:12:10 BÁRBARA MARTINEZ ROA
116 213 15:12:12 MOISES XARLES COMAS
117 83 15:12:16 GUILLERMO GARCIA DE MARINA SOLER
118 60 15:18:30 JORDI PEREA SORIANO
119 347 15:23:11 EUDALD SAEZ RIERA
120 149 15:32:44 JOAN RAMON ROCA PICHACO
121 57 15:33:40 JORDI TRIADÚ RODRIGUEZ
122 29 15:33:43 ORIOL MOLES DOMENECH
123 80 15:33:50 ALBERT BESORA I CAUSADIAS
124 30 15:33:55 MIQUEL NOGUES CASAN
125 11 15:41:16 XAVIER DIAZ MASÓ
126 92 15:47:31 EUGENI PORTA CONTRERAS
127 311 15:47:37 JORDI PIJUAN PARDELL
128 46 15:50:14 FRANCISCO JAVIER RODRÍGUEZ PIÑOL
129 116 15:50:18 MERCÈ RIBES CASTELLS
130 374 15:51:25 MAURICI BACARDIT HERNANDO
131 273 15:52:09 OSCAR LOPEZ MARTINEZ
132 246 15:56:05 QUIM FERRER SÁNCHEZ
133 152 15:56:24 MANUEL SILLERO ROLO
134 394 16:03:59 JORDI MANUEL SERRA NAVARRO
135 28 16:04:46 JORDI BATLLE RUIZ
136 187 16:05:43 JORDI PAUS PUJOL
137 216 16:07:17 ORIOL MILLAN TARRAGONA
138 101 16:07:37 ARMANDO SERRA CARRERA
139 102 16:07:38 ALFREDO MIRALLES CORTIEELA
140 307 16:07:57 SANTI PEREZ DIAZ
141 199 16:08:41 ALEX TARRE CASABLANCAS
142 201 16:08:50 EDUARD MARQUEZ
143 267 16:08:55 NURIA SITJÀ MIR
144 63 16:10:44 JOSEP MUÑOZ RUÍZ
145 227 16:12:25 LOURDES MORENTE AREVALO
146 170 16:12:26 ANNA DORCA GALÍ
147 226 16:12:29 PERE MASÓ SAGRERA
148 168 16:12:31 JOAN CARLES PADROSA COSTA
149 156 16:14:31 ANTONI GARCIA CRESPO
150 220 16:28:29 EDU HERNANDEZ REVIDIEGO
151 221 16:28:37 JORDI ROSILLO TURRA
152 292 16:29:31 JOSÉ ANTONIO CARMELO PARRA
153 251 16:29:34 XAVIER COLL OBRADOR
154 183 16:31:30 JESSICA GARROTE ARJONA
155 265 16:35:08 HOWARD SAYER
156 270 16:35:11 MALCOLM SAYER
157 144 16:36:47 JORDI ARXER FÀBREGA
158 312 16:42:29 ADRIÀ CUEVAS MIRAVETE
159 262 16:44:27 MARC SERRADELL MACAU
160 82 16:51:42 DAVID SÁNCHEZ CAMPANINS
161 406 16:52:17 HUMBERTO VILA
162 254 16:52:51 ROBERT MERCADER GROB
163 90 16:52:58 PERE MARTINEZ MARSINYACH
164 177 16:53:02 JOAN RUBIRALTA FERRER
165 296 16:53:47 JOAN ESCUDERO CANÉ
166 65 17:00:38 SERGIO CRESPO AIBAR
167 95 17:00:40 CARLES PUJOL SOLER
168 351 17:07:02 BEATRIZ GARCIA BERCHE
169 203 17:07:11 ANDREU GARCÍA LÓPEZ
170 100 17:11:32 JOAN RAMON PERUGA ARTERO
171 10 17:12:21 LLUIS DUEÑAS FARRAS
172 154 17:16:02 MARKUS STILO
173 189 17:16:09 MIGUEL ORTEGA PLATERO
174 376 17:16:28 JORDI MOTERA FULCARÀ
175 375 17:16:45 ISABEL AGUILAR BARBA
176 297 17:16:59 PERE RIEMBAU COLOMA
177 289 17:17:23 JORDI EDO FLORES
178 120 17:17:33 SANTI BARRIL PORCAR
179 31 17:19:59 TÀNIA MARTÍNEZ CASTELLVÍ
180 32 17:20:00 ALBERT CABRÉ MUNTÉ
181 137 17:21:53 PEP ARTERO ALBACETE
182 206 17:22:25 ELOI COLLELLDEMONT PUJADAS
183 392 17:22:47 DIEGO GONZALEZ SANCHEZ
184 330 17:25:15 JAUME AMIEL PICOLA
185 237 17:26:05 FRANCESC CASARRAMONA LOBERA
186 111 17:26:52 MIREIA DIAZ SANCHIS
187 5 17:27:00 FINA SERRAT SERRA
188 6 17:27:01 RAMON COMAS BAROY
189 129 17:27:04 VALENTÍ MORERA CASAMITJANA
190 344 17:32:18 PERE RIBAS PUJOL
191 343 17:32:21 DAVID QUINTANA SANCHEZ
192 380 17:33:45 ANTONIO FERNANDEZ GOMEZ
193 127 17:33:48 JOSÉ BRAVO PRIETO
194 313 17:53:15 IU CALVÓ CROS
195 325 17:54:00 DAVID CARBONES ANDORRA
196 384 17:54:12 MANEL MARTIN MOVELLAN
197 188 17:54:15 DAVID TRIAS TORRENT
198 99 17:54:25 MANEL REJON LINARES
199 163 17:54:30 EVA GONZALEZ SEOANE
200 94 17:55:15 DANIEL PUIG BORRAS
201 68 17:58:18 ESTEVE GAONA SANZ
202 233 17:58:20 EUGENI FALCON PONS
203 162 17:58:23 EMILI AMICH RIAU
204 234 17:58:28 CARLES PEDROSA PUJOL
205 204 17:58:32 VICENÇ PULIDO FRANCÀS
206 148 18:05:25 RAFAEL LOZANO BRIO
207 48 18:05:37 VÍCTOR PUIG PALOMERAS
208 217 18:05:45 MIQUEL BOADA ARTIGAS
209 378 18:06:13 LAURA RIBÓ PUIGSUBIRÀ
210 202 18:06:17 XAVIER SANS CORDOMI
211 412 18:06:28 MARTA SALVÀ
212 348 18:06:46 JOSEP BATLLE MACH
213 25 18:08:08 NACHO BARCELÓ SAENZ DE MANJARRÉS
214 108 18:13:34 CARLES DOÑATE PUIG
215 107 18:28:25 TONI RAMON AUGUSTIN GONZÁLEZ GONZÁLEZ
216 195 18:28:59 ALBERT SOLER GONZALEZ
217 366 18:34:30 JOAN CODINA TORNER
218 282 18:36:26 JOAN MIQUEL VILA SANTAMARIA
219 361 18:55:54 MIRIAM RODRIGUEZ FERRER
220 360 18:56:12 EDUARD HOMS PAGES
221 393 18:56:16 ROBERT JUANOLA JUANOLA
222 365 18:58:48 JOAN RIUS FIGUERAS
223 271 18:58:52 ARNAU RECASENS SALVAT
224 353 18:59:01 MIGUEL MARIN MILAN
225 298 18:59:26 DOLORS PUIG LÓPEZ
226 299 18:59:27 GENÍS SINCA ALGUÉ
227 319 19:06:14 DIEGO CANTALEJO GORDILLO
228 362 19:06:51 MANUEL FELIX RODRIGUEZ ALONSO
229 232 19:16:00 SANTIAGO PORTUS SERRAT
230 159 19:31:52 JUAN ANTONIO GOMEZ GOMEZ
231 43 19:31:55 JOSEP GALVEZ BAIXENCH
232 9 19:32:48 JOAN BELLIDO CABRETOSA
233 37 19:33:04 JOSEP VICENS TEIXIDOR
234 345 19:39:14 MIQUEL PAGES PIFERRER
235 280 19:39:17 JOSEP PRUJÀ QUER
236 157 19:40:44 JULIANA GUERRA BELMONTE
237 279 19:40:46 ANTONI SEGURA SEGURA
238 209 19:40:52 JORDI MARULL DUCH
239 274 19:44:25 JUAN ALBALAT
240 275 19:44:27 PILAR LACUNA TABUEÑA
241 181 19:45:28 MARC NIETO MARÍN
242 198 19:45:33 ANGEL ROMERO PIÑA
243 106 19:46:43 SEBASTIÀ CARRILLO MUÑOZ
244 408 19:46:50 SARA CEGARRA PEREZ
245 34 19:46:55 XAVIER ALONSO BLASI
246 331 19:50:10 JORDI MERINO SERRA
247 128 20:00:27 ALEJANDRO YRIBARNEGARAY HERNANDEZ
248 117 20:00:44 JOSÉ LUIS SOCORRO CUMPLIDO
249 165 20:09:28 RAMON ALCALDE RETAMERO
250 77 20:09:56 FRANCESC MUÑOZ RUEDA
251 72 20:10:03 PEDRO BONÍAS TRUJILLO
252 67 20:24:28 JESÚS PRAT SALA
253 410 20:24:29 DANI AMAGAT
254 245 20:24:37 JOSEP PRUÑONOSA MONNÉ
255 301 20:45:27 CARME CARMONA MAQUEDA
256 302 20:45:31 PERE ALSINA COLL
257 257 20:45:34 ENRIC TORRAMILANS RABERT
258 372 20:45:49 MAGALI POL PLANCHON
259 247 20:46:02 JOSEP VENTURA GUARRO
260 252 20:46:07 LLUÍS TUNEU ARXER
261 253 20:46:11 MARIA CAME TUNEU CODINA
262 97 20:48:54 JOSEP VIVÓ PÉREZ
263 290 20:56:04 ALEXANDRA BLANCHET NOGUÉS
264 377 20:56:06 DAVID CABRERO VENDRELL
265 24 21:15:28 EDUARD CONESA USTRELL
266 26 21:15:30 JOAN CONESA USTRELL
267 1 21:28:27 JOSEP TOMAS FERRE
268 306 21:28:30 NIEVES PARERA SURIÑACH
269 352 21:29:26 JAVIER BLASCO FERNANDEZ
270 78 21:31:29 EMILIA RAMOS GINER
271 158 21:31:31 ROSI ROMERO DURAN
272 236 21:31:34 MODESTA GUILLÉN TENA
273 180 21:31:53 EVA GIMÉNEZ PÉREZ
274 355 21:40:41 JORDI CAMPS LACARCEL
275 284 21:43:14 MONTSERRAT BERENGUER SAFONT
276 285 21:43:16 XAVIER CAPDEVILA CARRERA
277 248 21:47:03 CARLES SERRALTA PELLISÉ
278 333 21:50:39 ARIADNA LOPEZ VILA
279 334 21:50:40 RAFEL TURRA GARCIA
280 300 21:52:30 JAN-PHILIP EBERHARDT
281 185 22:11:57 DAVID LOPEZ PEREZ
282 172 22:12:00 CARLOS ALBERICH BLANCO
283 22 22:13:30 MIGUEL ANGEL MORENO GUITART
284 2 22:13:37 XAVIER GÓMEZ GUTIÉRREZ
285 3 22:13:40 XAVIER SOLER ROCA
286 249 22:14:58 FCO.JAVIER BLANCO CASTELLS
287 250 22:15:00 ANNA LOPEZ PEREZ
288 346 22:25:20 JOAN MIQUEL LABRADOR MATIAS
289 371 22:25:26 ELISABET ESTRADA ARMENGOL
290 387 22:25:29 JORDI NOGUERAS RIBALTA
291 370 22:28:39 JOAN MANUEL MILLAN VERDÚ
292 66 22:39:20 JOAN LLUIS RAMA ALVAREZ
293 173 22:39:25 JOSEP LLUIS CENTELLES GIL
294 317 22:41:26 ANTONI GARCIA QUESADA
295 398 22:41:29 IVAN ARTACHO
296 138 23:12:24 JUAN JOSÉ CASTEDO ALFONSO
297 45 23:12:40 ALBERT RUIZ AGUILA
298 114 23:38:03 ANTONIO ESCUDER TORRES
299 341 23:42:23 MERITXELL FERRER ISERN
Anuncis

Deixa un comentari

Fill in your details below or click an icon to log in:

WordPress.com Logo

Esteu comentant fent servir el compte WordPress.com. Log Out / Canvia )

Twitter picture

Esteu comentant fent servir el compte Twitter. Log Out / Canvia )

Facebook photo

Esteu comentant fent servir el compte Facebook. Log Out / Canvia )

Google+ photo

Esteu comentant fent servir el compte Google+. Log Out / Canvia )

Connecting to %s